CZ-6A DEB, 55544

Orbit data source: Space-Track

CZ-6A DEB, 55544 is space debris in SSO originally from a launch on Fri, 11 Nov 2022 UTC launched from the Taiyaun Space Center, China (TSC). Debris objects in space refer to the collection of defunct objects orbiting the Earth. Examples of debris include non-operational satellites, rocket bodies, and fragments generated from explosions, collisions, or faulty payload assembly.

Loading next visibility...
Identifier
55544, 2022-151YS
Orbit
SSO
Country
Flag of CNCN / PRC
Related business
Manufacturer
SAST
Mission
Spacecraft
Bus & Motor
Unknown
Mass
Unknown
Launch date (UTC)
2022-11-11 (4 years ago)
Launch vehicle
Unknown
Launch site
Taiyaun Space Center, China (TSC)
Object type
Payload
Rocket body
Debris
Shape & HBR
Unknown shape, 0.1 m
Radar Cross Section
Medium (>0.1 m² and <1 m²)

Expand to show TLE details & history
Last TLE update: 23 hours ago

TLE from 23 hours ago
0 CZ-6A DEB
1 55544U 22151YS  26263.96104312  .00000947  00000-0  57021-3 0  9997
2 55544  98.9571 270.6509 0079621 108.6380 252.3455 14.07615492192304
Epoch: 2026-09-20T23:03Z
TLE epoch observation values (Epoch: 2026-09-20T23:03:54.125Z)
Latitude
-0.00002°
Longitude
-75.17234°
Altitude
888.348 km
Speed
7.399 km/s
True Right ascension
18h 02m 36s
True Declination
0° 00' 00"
Sunlit
Object was in daylight at epoch
Visualization orbit readout
Latitude
Unknown
Longitude
Unknown
Altitude
Unknown
Speed
Unknown
Apparent Right ascension
Unknown
Apparent Declination
Unknown
Sunlit
N/A
Visualization observer readout
Local Sidereal Time
14:52:27
Azimuth
Unknown
Elevation
Unknown
Doppler factor
Unknown
Orbital elements
Apogee altitude
922.398 km
Perigee altitude
807.061 km
Semi-major axis
7,242.867 km
Eccentricity
0.00796
Inclination
98.9571°
RAAN
270.6509°
Arg. of periapsis
108.638°
True anomaly
251.47873°
Mean anomaly
252.3455°
Eccentric anomaly
251.91185°
Mean motion
3.52109 °/min
Orbital period
102.24 mins
BSTAR
0.00057021
Loading maneuver chart data...
Computing Atmospheric mass density...

Documentation

Showing up to 5 results
|